Temperature
17 18 18 18 17 17 17 17 17 17 17 17 17 17 17 17 17 17 17 17 17 17 17 16 16 16 16 16 16 16 15 15 15 15 15 15 15 15
17 17 17 17 17 17 17 17 17 17 17 17 17 17 17 17 17 17 17 17 17 17 17 16 16 16 16 16 16 16 15 15 15 15 15 15 15 14
17 17 17 17 17 17 17 17 17 17 17 17 17 17 17 17 17 17 17 16 16 16 16 16 16 16 16 16 16 16 15 15 15 15 15 15 14 14
16 16 16 17 17 17 17 17 16 16 16 16 16 16 16 16 16 16 16 16 16 16 16 16 16 16 16 16 16 15 15 15 15 15 15 15 14 14
16 16 16 16 17 17 17 16 16 16 16 16 16 16 16 16 16 16 16 16 16 16 16 16 16 16 16 15 15 15 15 15 15 15 14 14 14 14
16 16 16 16 16 16 16 16 16 16 16 16 16 16 16 16 16 15 15 15 15 15 15 15 15 15 15 15 15 15 15 15 14 14 14 14 14 14
16 16 16 16 16 16 15 16 15 15 15 15 15 15 15 15 15 15 15 15 15 15 15 15 15 15 15 15 15 15 14 14 14 14 14 14 14 13
16 16 16 15 15 15 15 15 15 15 15 15 15 15 15 15 15 15 14 14 14 15 14 15 14 15 15 15 14 14 14 14 14 14 14 13 13 13
16 15 15 15 15 15 15 15 15 15 15 15 15 15 15 15 15 14 14 14 14 14 14 14 14 14 14 14 14 14 14 14 13 13 13 13 13 13
15 15 15 15 15 15 15 15 15 15 15 15 14 14 14 14 14 14 14 14 14 14 14 13 13 13 14 14 14 14 13 13 13 13 13 13 13 12
15 14 15 15 15 14 14 14 14 14 14 14 14 14 14 14 14 14 14 13 13 13 13 13 13 13 13 13 13 13 13 13 13 13 12 12 12 12
14 14 14 14 14 14 14 14 14 14 14 14 14 14 14 14 14 14 13 13 13 13 13 13 13 12 12 12 13 13 13 12 12 12 12 12 12 11
14 14 14 14 14 14 14 14 14 14 14 14 14 14 14 14 14 14 13 13 13 13 13 13 12 12 12 12 12 12 12 12 12 12 12 12 11 11
13 13 14 14 14 14 14 14 14 13 13 13 13 13 13 13 13 13 13 13 13 13 13 12 12 12 12 12 11 12 12 12 12 12 12 12 11 11
13 13 13 13 13 13 13 13 13 13 13 13 13 13 13 13 13 13 13 13 12 12 12 12 12 12 11 11 11 11 11 11 11 11 11 11 11 11
13 12 13 13 13 13 13 13 13 13 13 13 13 12 13 12 12 12 12 12 12 12 12 12 12 11 11 11 11 11 11 11 11 11 11 11 11 10
12 12 12 13 13 12 12 12 12 12 12 12 12 12 12 12 12 12 12 12 12 12 11 12 11 11 11 11 11 11 11 11 11 11 10 10 10 10
12 12 12 12 12 12 12 12 12 12 12 12 12 12 11 11 11 11 11 11 11 11 11 11 11 11 11 11 11 11 11 11 11 10 10 10 10 10
12 12 11 11 11 11 11 11 11 11 11 11 11 11 11 11 11 11 11 11 11 11 11 11 11 11 10 10 11 11 11 10 10 10 10 10 10 10
11 11 11 11 11 11 11 11 11 11 11 10 10 11 11 10 10 11 11 11 11 10 10 10 10 10 10 10 10 10 11 10 10 10 10 10 10 10
11 11 11 11 11 11 10 10 10 10 10 10 10 10 10 10 10 10 10 10 10 10 10 10 10 10 10 10 10 10 10 10 10 10 10 9 9 9
10 10 10 10 10 10 10 10 10 9 9 9 9 9 9 9 9 9 9 10 10 10 10 10 10 10 10 10 10 10 10 10 10 10 10 10 9 9
10 10 10 10 9 9 9 9 9 9 9 9 9 9 9 9 9 9 9 9 9 9 9 9 9 9 9 9 9 9 9 9 9 9 9 9 9 9
Wind_Speed
4 3 3 3 3 3 3 3 3 3 4 4 3 3 4 5 7 8 7 11 15 16 16 17 16 15 15 14 14 13 12 11 11 11 11 11 10 9
3 3 3 3 3 2 2 3 3 4 3 2 3 2 2 3 6 6 6 10 14 16 16 16 16 16 16 15 15 14 13 12 12 11 11 10 10 9
3 3 3 3 2 3 2 3 3 3 4 3 2 2 2 3 3 5 6 7 9 14 16 16 15 15 15 15 15 14 14 13 12 11 11 11 10 10
3 3 4 3 3 3 3 4 4 4 4 5 3 2 3 3 4 4 5 5 5 10 13 14 15 15 14 14 14 14 13 13 12 12 11 10 10 10
4 4 4 3 3 3 4 4 4 4 3 4 4 3 3 4 3 4 5 3 4 6 10 12 13 14 14 14 13 13 13 13 12 12 12 11 11 10
4 4 4 4 4 4 5 4 4 4 3 4 4 3 3 3 3 3 3 3 3 4 5 8 11 13 13 14 14 14 13 13 13 13 12 12 11 10
3 4 4 4 5 4 5 3 4 4 4 4 4 3 3 2 3 3 4 3 3 3 2 4 5 6 8 11 13 13 14 14 13 13 13 12 12 11
4 4 5 5 5 6 6 5 4 5 4 4 4 4 4 4 3 4 3 3 3 2 3 3 4 4 6 8 12 14 15 15 14 14 13 13 13 12
4 4 6 5 3 3 5 7 7 8 7 5 5 5 5 3 3 4 4 5 4 3 2 4 3 4 4 7 12 15 15 15 15 15 14 14 14 13
5 5 4 2 3 3 4 4 5 5 6 6 6 6 5 4 5 6 5 4 4 3 3 3 3 3 3 4 9 13 15 16 16 16 15 15 14 14
4 4 3 2 2 2 3 4 5 5 6 6 7 7 7 7 6 3 3 3 4 3 2 2 2 2 2 3 6 12 14 15 15 15 15 15 15 14
3 2 2 2 2 2 3 4 5 5 5 5 5 6 6 6 7 5 4 4 3 3 2 2 2 2 2 2 2 5 9 12 14 14 15 16 16 11
3 3 2 1 2 4 4 5 7 6 5 5 4 4 3 3 4 5 5 5 4 4 3 2 2 2 2 2 2 3 5 5 8 9 13 15 16 13
3 2 1 3 4 5 5 7 7 5 4 4 3 4 4 3 4 4 5 6 6 5 5 4 3 3 3 3 2 3 4 5 6 6 7 10 13 15
3 3 4 5 5 5 7 7 5 4 4 4 4 4 3 3 3 3 3 4 5 7 7 6 4 4 4 4 4 3 3 4 5 5 5 6 7 7
4 4 5 5 5 5 4 5 5 4 4 4 3 3 2 2 2 2 2 3 3 4 5 6 5 5 5 5 4 4 4 4 5 4 4 4 5 7
2 3 3 2 2 2 3 3 3 3 3 3 3 3 2 2 2 2 2 2 3 4 3 3 4 4 5 5 5 5 4 4 4 4 4 4 5 6
2 3 3 2 3 3 3 2 2 2 2 3 3 3 3 2 3 2 2 2 3 3 3 3 3 3 3 4 5 5 4 4 4 4 4 5 5 5
2 3 3 2 2 2 2 2 2 2 2 2 2 3 2 3 3 3 2 3 4 4 4 3 4 4 4 5 4 4 5 5 5 5 5 5 5 5
1 2 2 2 2 1 1 1 2 2 2 2 2 3 3 3 4 4 3 3 4 4 4 4 4 4 6 6 4 4 7 6 5 5 5 4 3 3
2 2 2 3 2 2 2 2 2 2 2 2 2 3 3 4 4 4 4 5 5 4 5 5 5 6 4 3 3 3 3 5 6 5 5 4 4 4
2 2 2 2 2 2 2 2 2 2 3 3 3 3 3 4 4 5 4 4 4 5 5 4 4 3 3 4 5 5 4 3 4 6 7 6 5 6
2 2 2 3 3 3 3 3 3 3 2 3 3 3 4 4 4 5 5 5 5 5 5 4 3 3 4 4 5 4 4 4 3 3 3 5 9 9
Wind_Direction
236 230 244 247 252 248 230 216 219 244 249 234 230 217 184 176 185 195 200 206 208 208 210 212 213 212 212 214 215 217 221 224 225 224 222 221 222 224
230 231 247 261 262 259 251 250 234 239 252 235 239 234 215 202 200 199 210 211 208 208 209 210 212 212 212 214 215 216 220 222 224 223 219 219 217 222
238 223 230 253 272 270 259 254 253 249 256 263 253 237 232 217 220 223 228 216 212 210 211 211 210 211 212 214 216 217 218 218 218 218 218 218 217 217
241 242 239 243 252 272 278 268 260 248 239 253 258 257 255 224 215 225 227 227 208 208 207 209 209 211 212 212 212 211 210 210 210 212 212 212 214 215
236 237 243 247 244 258 266 270 271 267 249 249 257 248 252 239 224 237 241 228 232 214 204 208 207 209 211 208 206 203 203 207 207 207 209 211 214 215
241 241 242 245 246 255 257 262 272 276 267 255 256 255 254 244 222 234 247 232 237 233 205 205 204 209 210 206 205 203 203 205 207 208 208 209 211 212
241 240 240 238 238 244 256 260 266 269 266 260 256 263 271 265 245 246 253 247 241 229 205 204 193 198 203 207 209 207 204 205 206 207 208 208 208 208
250 246 242 234 234 231 242 251 250 252 260 264 265 263 263 268 264 256 252 259 259 223 214 231 203 205 201 205 205 205 205 205 206 206 207 209 209 209
255 253 258 248 226 244 251 251 248 246 240 245 261 263 259 255 256 264 256 247 252 238 234 245 226 223 211 208 197 199 201 203 204 204 206 208 209 210
256 251 247 274 273 275 270 262 257 251 241 239 248 258 262 253 241 245 253 257 245 233 218 241 232 237 231 199 198 194 197 201 204 204 205 206 208 211
259 260 241 234 277 302 274 271 271 274 256 246 244 250 249 251 249 251 252 248 261 251 225 225 232 240 232 219 204 196 195 202 207 209 209 208 209 209
255 244 245 222 242 254 262 265 265 272 280 269 256 251 243 236 227 222 233 243 254 256 226 212 229 226 244 236 201 195 204 213 211 211 213 213 209 206
257 250 250 240 250 247 254 257 260 269 274 265 249 246 242 230 215 209 212 224 240 247 229 206 231 234 228 243 227 208 198 201 204 213 217 216 210 203
275 274 255 255 260 253 251 256 264 270 266 262 252 248 242 234 227 223 219 219 225 234 231 221 229 227 236 254 251 224 220 206 197 204 206 209 211 211
282 285 273 256 253 248 245 251 254 252 252 257 256 252 247 239 236 235 232 216 223 234 233 226 222 224 230 239 235 227 235 230 210 203 203 202 204 205
281 284 274 253 251 254 255 249 242 242 243 252 265 270 264 251 239 244 244 231 236 240 235 233 224 221 233 239 231 228 223 218 215 215 210 213 208 203
272 268 264 262 252 250 247 242 236 235 247 253 257 269 269 264 256 240 239 249 244 247 248 241 235 229 228 236 236 229 223 229 223 215 222 229 225 214
243 262 267 264 258 257 258 251 243 250 256 254 257 263 266 267 267 264 256 252 255 252 250 247 242 239 247 252 230 229 227 229 232 222 222 234 237 223
240 265 279 283 269 273 280 294 294 288 275 272 268 269 272 272 268 267 262 259 261 264 258 248 239 232 246 263 256 233 233 234 227 228 226 231 236 226
282 316 327 320 320 334 340 332 323 321 313 303 300 299 293 285 277 273 267 264 264 265 265 255 244 238 241 250 257 253 231 227 229 230 233 240 249 229
331 336 344 342 341 357 2 360 348 339 335 321 316 312 305 296 286 278 273 268 261 263 265 261 249 239 242 244 256 260 249 231 227 225 221 226 238 238
327 346 360 9 359 8 15 10 357 356 350 341 335 318 308 302 295 290 284 279 271 266 273 276 266 243 237 239 247 252 257 253 245 233 226 220 224 230
354 6 22 27 20 16 9 8 3 356 350 344 332 320 315 308 301 299 295 292 289 285 282 280 276 255 249 246 249 255 255 250 244 234 253 247 238 239
Height
1532 1533 1533 1534 1534 1535 1536 1537 1538 1537 1537 1537 1537 1538 1538 1537 1537 1537 1537 1537 1537 1537 1538 1538 1539 1539 1540 1541 1542 1543 1543 1544 1545 1545 1546 1546 1547 1547
1530 1530 1530 1531 1531 1532 1532 1533 1534 1535 1534 1533 1534 1535 1535 1534 1534 1534 1534 1534 1533 1534 1534 1534 1535 1535 1536 1537 1538 1539 1539 1540 1541 1541 1542 1542 1543 1543
1527 1527 1527 1528 1528 1529 1530 1530 1531 1531 1530 1530 1531 1531 1531 1531 1531 1530 1530 1530 1530 1530 1530 1530 1531 1531 1532 1533 1534 1534 1535 1536 1537 1537 1538 1538 1539 1539
1524 1524 1524 1525 1525 1526 1526 1527 1527 1528 1528 1526 1527 1527 1527 1527 1527 1527 1527 1526 1526 1526 1526 1526 1527 1527 1528 1528 1529 1530 1531 1531 1532 1533 1534 1534 1535 1535
1521 1521 1521 1521 1522 1522 1523 1523 1524 1524 1524 1524 1523 1523 1523 1524 1523 1523 1523 1523 1523 1522 1522 1523 1523 1523 1524 1525 1525 1526 1526 1527 1528 1529 1529 1530 1531 1531
1517 1517 1517 1518 1518 1518 1519 1519 1520 1520 1520 1520 1520 1519 1519 1519 1519 1519 1519 1519 1519 1519 1519 1519 1519 1520 1520 1521 1521 1522 1522 1523 1524 1524 1525 1526 1527 1527
1513 1513 1513 1514 1514 1515 1515 1515 1516 1516 1516 1516 1516 1515 1515 1515 1515 1515 1515 1515 1515 1515 1515 1515 1515 1515 1516 1516 1517 1518 1518 1519 1520 1520 1521 1521 1522 1523
1509 1509 1510 1510 1511 1511 1511 1511 1512 1512 1512 1512 1512 1511 1511 1511 1511 1511 1511 1511 1511 1512 1511 1511 1511 1511 1511 1512 1513 1514 1514 1515 1516 1516 1516 1517 1518 1518
1505 1505 1506 1506 1507 1507 1507 1507 1507 1508 1508 1508 1507 1507 1507 1507 1507 1506 1507 1507 1506 1507 1507 1506 1507 1507 1508 1508 1508 1509 1510 1511 1511 1512 1512 1513 1514 1514
1501 1502 1501 1502 1502 1503 1503 1503 1503 1503 1504 1504 1504 1503 1503 1503 1503 1503 1502 1502 1502 1503 1503 1503 1503 1503 1503 1504 1504 1505 1506 1506 1507 1508 1508 1509 1510 1510
1498 1498 1498 1498 1498 1498 1498 1498 1498 1499 1499 1499 1499 1499 1499 1499 1499 1499 1498 1498 1498 1498 1499 1499 1498 1499 1499 1499 1500 1501 1502 1502 1503 1504 1504 1505 1506 1506
1493 1493 1493 1493 1494 1494 1494 1494 1494 1494 1495 1494 1494 1494 1494 1494 1494 1494 1494 1494 1494 1494 1494 1495 1495 1495 1495 1496 1496 1497 1497 1498 1499 1499 1500 1501 1501 1502
1489 1488 1489 1489 1489 1490 1490 1490 1490 1490 1490 1490 1490 1490 1489 1489 1489 1489 1490 1490 1490 1490 1490 1491 1491 1491 1492 1491 1492 1493 1493 1494 1494 1495 1496 1496 1497 1498
1485 1485 1485 1485 1485 1485 1486 1486 1486 1486 1486 1486 1486 1485 1485 1485 1484 1485 1485 1485 1486 1486 1486 1487 1486 1486 1487 1487 1487 1488 1488 1489 1490 1490 1491 1492 1492 1493
1481 1481 1481 1481 1481 1481 1481 1482 1482 1482 1482 1482 1482 1481 1481 1481 1481 1481 1481 1482 1482 1482 1482 1482 1482 1482 1482 1482 1482 1483 1483 1484 1485 1485 1485 1486 1487 1488
1477 1477 1477 1477 1477 1477 1478 1478 1478 1478 1478 1478 1478 1478 1478 1478 1478 1477 1477 1477 1478 1477 1478 1478 1479 1479 1478 1479 1479 1478 1479 1479 1480 1481 1481 1481 1482 1483
1474 1474 1474 1473 1473 1473 1474 1474 1474 1474 1474 1474 1474 1475 1474 1474 1474 1474 1474 1474 1473 1473 1473 1474 1474 1474 1474 1475 1475 1474 1474 1474 1475 1475 1475 1475 1475 1477
1471 1470 1470 1469 1469 1470 1470 1470 1470 1470 1470 1470 1471 1471 1471 1471 1471 1471 1470 1470 1469 1469 1469 1469 1469 1469 1470 1470 1471 1470 1470 1470 1470 1470 1470 1470 1470 1471
1468 1467 1467 1466 1466 1467 1467 1467 1467 1467 1467 1467 1467 1467 1467 1467 1467 1467 1467 1466 1466 1465 1465 1465 1465 1465 1464 1464 1464 1466 1465 1464 1465 1465 1465 1466 1465 1466
1466 1465 1465 1464 1464 1464 1464 1464 1464 1464 1464 1463 1463 1463 1463 1463 1463 1463 1463 1462 1462 1461 1461 1461 1461 1461 1460 1459 1459 1459 1460 1460 1460 1459 1460 1460 1461 1462
1465 1464 1464 1463 1463 1462 1462 1462 1461 1461 1460 1460 1459 1459 1459 1459 1459 1459 1458 1458 1458 1457 1456 1456 1456 1457 1456 1456 1455 1454 1454 1455 1455 1454 1454 1455 1455 1456
1464 1464 1463 1462 1461 1460 1459 1459 1459 1458 1457 1457 1456 1455 1455 1455 1455 1454 1454 1454 1453 1453 1452 1452 1452 1452 1451 1450 1449 1449 1449 1450 1450 1450 1451 1451 1450 1450
1463 1462 1461 1460 1459 1458 1457 1456 1456 1455 1455 1454 1453 1452 1451 1451 1451 1450 1450 1450 1449 1449 1448 1447 1447 1446 1446 1446 1445 1444 1444 1444 1444 1445 1445 1446 1446 1446